2017 Lord of the Springs
Skip Navigation Links
Results
16 Sep 2017
Page 1 of 5 (230 items)
[1]2345
Pos
Race No
Share
Print
Video
Name
Time
Category
Cat Pos
Gender
Gen Pos
Pace
140MATT ACKER01:27:46Top 31Male117.8 m/hr
2138TOM LINCK01:28:45Top 32Male217.6 m/hr
3130DAN KORIENEK01:29:09Top 33Male317.5 m/hr
4131KEEGAN KORIENEK01:29:1316-291Male417.5 m/hr
5217JOE THOMAS01:29:1430-391Male517.5 m/hr
6144JOSEPH MARTIN01:29:3940-491Male617.4 m/hr
7120PATRICK HORNACEK01:29:4040-492Male717.4 m/hr
8196TERRY SENSIBA01:29:4150-591Male817.4 m/hr
9170CHRIS PATTERSON01:29:4630-392Male917.4 m/hr
10151JOHN MEYERS01:29:5450-592Male1017.4 m/hr
11128JEREMY KAREL01:30:3630-393Male1117.2 m/hr
12200DANIEL SOLTAN01:31:0216-292Male1217.1 m/hr
13126MIKE JONES01:31:1150-593Male1317.1 m/hr
14122JIM JACKOVATZ01:31:2340-493Male1417.1 m/hr
15146MARTI MAYACK01:31:4440-494Male1517.0 m/hr
16243WILLIAM MARTIN01:31:50SS1Male1617.0 m/hr
1777DEVIN DEBOER01:31:53Fatbike1Male1717.0 m/hr
18216ALEX TENELSHOF01:32:4016-293Male1816.8 m/hr
1920DAN KANNEGIETER01:33:06Fatbike2Male1916.8 m/hr
20148MICHAEL MCGRAW01:33:1640-495Male2016.7 m/hr
21174MARK PRUIM01:33:4240-496Male2116.6 m/hr
22150DOUGLAS MCKIBBON01:34:5540-497Male2216.4 m/hr
23142BRETT LUBBEN01:35:2516-294Male2316.3 m/hr
24186DON HACKNEY01:35:2540-498Male2416.3 m/hr
25212JOE STONER01:35:2640-499Male2516.3 m/hr
26203MARK SPORE01:35:4840-4910Male2616.3 m/hr
2744TROY ANDREWS01:35:5830-394Male2716.3 m/hr
28157CHRISTOPHER MOWELL01:36:1230-395Male2816.2 m/hr
2929ROB RICHARDSON01:36:18Fatbike3Male2916.2 m/hr
3021ROY KRANZ01:36:42Fatbike4Male3016.1 m/hr
315JOSEPH LAMPEN01:36:47Clydes1Male3116.1 m/hr
3225JIMMY MCMURRAY01:37:54Fatbike5Male3215.9 m/hr
33214TOM STRUMBERGER01:38:3250-594Male3315.8 m/hr
34210TIMOTHY STEWART01:38:3950-595Male3415.8 m/hr
3548AARON BARTO01:38:4140-4911Male3515.8 m/hr
36110TONY HERSBERGER01:39:2740-4912Male3615.7 m/hr
3789ERIC FORRESTER01:39:3640-4913Male3715.7 m/hr
3853PAUL BONAR01:39:3730-396Male3815.7 m/hr
39230STEVE WOJTON01:39:3940-4914Male3915.7 m/hr
40238TIM CURTIS01:40:03SS2Male4015.6 m/hr
41171JOE PERRY01:40:2530-397Male4115.5 m/hr
42121LUKE HUBBARD01:40:3016-295Male4215.5 m/hr
43224ANGELA WEBSTER01:40:37Top 31Female115.5 m/hr
44185EDDIE RUFFING01:40:5140-4915Male4315.5 m/hr
45218DAVE TUIT01:41:1440-4916Male4415.4 m/hr
46117MATT HOFFMAN01:41:2840-4917Male4515.4 m/hr
47147CHRIS MCCLEAD01:41:3430-398Male4615.4 m/hr
48197WILLIAM SHAVER01:42:2050-596Male4715.2 m/hr
49242JACOB MARSHALL01:42:44SS3Male4815.2 m/hr
50188KEVIN RYAN01:42:4440-4918Male4915.2 m/hr
Page 1 of 5 (230 items)
[1]2345
fb